EW1914 Weather Reports


Display with metric or nautical units.
time (UTC)temp
F
wind
direction
speed
MPH
gust
MPH
rain 1hr
in
rain 24hr
in
rain mn
in
humidity
%
barometer
mb
20260504081958 68 0.0 0.0 0.00 0.00 0.00 59 1007.5
20260504080957 69 0.0 0.0 0.00 0.00 0.00 59 1007.4
20260504050004 75 0.0 0.0 0.00 0.00 0.00 47 1006.4
20260504044000 76 0.0 0.0 0.00 0.00 0.00 47 1006.5
20260504043002 76 0.0 0.0 0.00 0.00 0.00 47 1006.3
20260504042000 77 0.0 0.0 0.00 0.00 0.00 47 1006.3
20260504040004 78 0.0 0.0 0.00 0.00 0.00 45 1006.0
20260504034959 79 0.0 0.0 0.00 0.00 0.00 44 1006.0
20260504033959 79 0.0 0.0 0.00 0.00 0.00 43 1005.9
20260504033000 80 0.0 0.0 0.00 0.00 0.00 43 1005.8
20260504030001 82 0.0 0.0 0.00 0.00 0.00 41 1005.6
20260504024958 83 0.0 0.0 0.00 0.00 0.00 40 1005.4
20260504023959 83 0.0 0.0 0.00 0.00 0.00 39 1005.4
20260504023001 84 0.0 0.0 0.00 0.00 0.00 38 1005.4
20260504021959 84 0.0 0.0 0.00 0.00 0.00 38 1005.5
20260504020959 85 0.0 0.0 0.00 0.00 0.00 37 1005.4
20260504020001 85 0.0 0.0 0.00 0.00 0.00 36 1005.5
20260504014959 86 0.0 0.0 0.00 0.00 0.00 36 1005.5
20260504013959 86 0.0 0.0 0.00 0.00 0.00 36 1005.6
20260504013001 86 0.0 0.0 0.00 0.00 0.00 35 1005.6
20260504011959 87 0.0 0.0 0.00 0.00 0.00 36 1005.7
20260504010959 87 0.0 0.0 0.00 0.00 0.00 35 1005.7
20260504010013 88 0.0 0.0 0.00 0.00 0.00 34 1005.8
20260504005004 88 0.0 0.0 0.00 0.00 0.00 33 1005.9
20260504003000 89 0.0 0.0 0.00 0.00 0.00 33 1006.0
20260504001959 89 0.0 0.0 0.00 0.00 0.00 31 1006.0
20260504001000 89 0.0 0.0 0.00 0.00 0.00 32 1006.0
20260504000001 90 0.0 0.0 0.00 0.00 0.00 31 1006.0
20260503234958 90 0.0 0.0 0.00 0.00 0.00 31 1006.2
20260503233959 90 0.0 0.0 0.00 0.00 0.00 32 1006.2
20260503231958 91 0.0 0.0 0.00 0.00 0.00 31 1006.4
20260503230958 91 0.0 0.0 0.00 0.00 0.00 31 1006.6
20260503222000 91 0.0 0.0 0.00 0.00 0.00 33 1007.4
20260503220958 90 0.0 0.0 0.00 0.00 0.00 35 1007.6
20260503220004 90 0.0 0.0 0.00 0.00 0.00 36 1007.6
20260503214959 89 0.0 0.0 0.00 0.00 0.00 38 1007.9
20260503213959 88 0.0 0.0 0.00 0.00 0.00 39 1007.9
20260503213000 88 0.0 0.0 0.00 0.00 0.00 41 1008.0
20260503211959 87 0.0 0.0 0.00 0.00 0.00 40 1008.1
20260503210001 85 0.0 0.0 0.00 0.00 0.00 39 1008.4
20260503204959 85 0.0 0.0 0.00 0.00 0.00 42 1008.5
20260503203959 84 0.0 0.0 0.00 0.00 0.00 42 1008.6
20260503201959 83 0.0 0.0 0.00 0.00 0.00 48 1009.0
20260503200959 82 0.0 0.0 0.00 0.00 0.00 47 1009.1
20260503200001 81 0.0 0.0 0.00 0.00 0.00 50 1009.3
20260503194958 80 0.0 0.0 0.00 0.00 0.00 50 1009.3
20260503193958 79 0.0 0.0 0.00 0.00 0.00 53 1009.5
20260503193001 78 0.0 0.0 0.00 0.00 0.00 55 1009.6
20260503191958 77 0.0 0.0 0.00 0.00 0.00 57 1009.7
20260503190959 76 0.0 0.0 0.00 0.00 0.00 57 1009.8
20260503190002 75 0.0 0.0 0.00 0.00 0.00 59 1010.0
20260503184958 74 0.0 0.0 0.00 0.00 0.00 59 1010.1
20260503183958 73 0.0 0.0 0.00 0.00 0.00 62 1010.2
20260503183000 73 0.0 0.0 0.00 0.00 0.00 63 1010.4
20260503181958 72 0.0 0.0 0.00 0.00 0.00 65 1010.5
20260503180000 70 0.0 0.0 0.00 0.00 0.00 66 1010.8
20260503174958 69 0.0 0.0 0.00 0.00 0.00 70 1010.8
20260503173958 68 0.0 0.0 0.00 0.00 0.00 72 1011.0
20260503173001 67 0.0 0.0 0.00 0.00 0.00 73 1011.0
20260503171957 66 0.0 0.0 0.00 0.00 0.00 74 1011.1
20260503150958 56 0.0 0.0 0.00 0.00 0.00 93 1011.6